User: anonymous   Login
Location: Brainerd
(46.3580°N, 94.2010°W)
Time: 00:35:01
(UTC-05:00)
Language:

CZ-4C R/B - Orbit

View from above orbital plane
View from above orbital plane
View from above satellite
View from above satellite

Ground track
Ground track

The orbit data is extracted from the following two-line orbital elements,

1 32290U 07055B   16244.49588591  .00003928  00000-0  11635-3 0  9990
2 32290  97.5276 339.4204 0071589  84.2886 276.6513 15.32945928487417
Epoch (UTC): 31 August 2016 11:54:04
Eccentricity: 0.0071589
inclination: 97.5276°
perigee height: 418 km
apogee height: 516 km
right ascension of ascending node: 339.4204°
argument of perigee: 84.2886°
revolutions per day: 15.32945928
mean anomaly at epoch: 276.6513°
orbit number at epoch: 48741

The dashed part of the orbit path shows where the satellite is in the earth's shadow,  

DLR